Deering, AK

12:48 AM AKDT on August 18, 2017 (GMT -0800)
Deering (New)

Weather History for PADE - October, 2013

Change the Weather History Date:

Tuesday, October 29, 2013

  Actual Average (PAOT) Record (PAOT)
Temperature  
Mean Temperature 32 °F -  
Max Temperature 37 °F 19 °F 41 °F (2016)
Min Temperature 28 °F 9 °F -12 °F (1975)
Degree Days  
Heating Degree Days 32    
Moisture  
Dew Point 28 °F    
Average Humidity 82    
Maximum Humidity 93    
Minimum Humidity 75    
Precipitation  
Precipitation 0.00 in - - ()
Sea Level Pressure  
Sea Level Pressure 29.39 in    
Wind  
Wind Speed 14 mph (West)    
Max Wind Speed 21 mph    
Max Gust Speed 26 mph    
Visibility 9 miles    
Events Snow    
Averages and records for this station are not official NWS values.
T = Trace of Precipitation, MM = Missing Value Source: NWS Daily Summary

Daily Weather History Graph

Daily Weather History Graph

Search for Another Location

Airport or City:

Trip Planner

Search our weather history database for the weather conditions in past years. The results will help you decide how hot, cold, wet, or windy it might be!

Date:

Astronomy

Oct. 29, 2013 Rise Set
Actual Time 10:37 AM AKDT 6:30 PM AKDT
Civil Twilight 9:40 AM AKDT 7:27 PM AKDT
Nautical Twilight 8:39 AM AKDT 8:28 PM AKDT
Astronomical Twilight 7:39 AM AKDT 9:27 PM AKDT
Moon 3:45 AM AKDT (10/29) 5:30 PM AKDT (10/29)
Length of Visible Light 9h 47m
Length of Day
7h 52m
Waning Crescent, 24% of the Moon is Illuminated
Oct 29
Waning Crescent
Nov 3
New
Nov 9
First Quarter
Nov 17
Full
Nov 25
Last Quarter

Hourly Weather History & Observations

Time (AKDT) Temp. Windchill Dew Point Humidity Pressure Visibility Wind Dir Wind Speed Gust Speed Precip Events Conditions
12:08 AM 37.4 °F 29.3 °F 33.8 °F 87% 29.14 in 10.0 mi WNW 12.7 mph - 0.00 in   Overcast
12:53 AM 37.0 °F 27.7 °F 32.0 °F 82% 29.16 in 10.0 mi WNW 16.1 mph - 0.00 in   Overcast
1:53 AM 37.0 °F 27.7 °F 32.0 °F 82% 29.18 in 10.0 mi WNW 16.1 mph 24.2 mph N/A   Overcast
2:53 AM 37.0 °F 26.4 °F 32.0 °F 82% 29.20 in 10.0 mi NW 20.7 mph 26.5 mph N/A   Overcast
3:53 AM 36.0 °F 25.6 °F 30.9 °F 82% 29.23 in 10.0 mi NW 18.4 mph - N/A   Clear
4:53 AM 36.0 °F 25.6 °F 30.9 °F 82% 29.26 in 10.0 mi WNW 18.4 mph - N/A   Clear
5:53 AM 36.0 °F 26.0 °F 30.9 °F 82% 29.28 in 10.0 mi WNW 17.3 mph - N/A   Clear
6:53 AM 35.1 °F 25.5 °F 30.9 °F 85% 29.30 in 10.0 mi WNW 15.0 mph - N/A   Clear
7:53 AM 35.1 °F 25.5 °F 28.9 °F 78% 29.33 in 10.0 mi NW 15.0 mph - N/A   Clear
9:53 AM 34.0 °F 26.0 °F 28.9 °F 82% 29.37 in 10.0 mi WNW 10.4 mph - N/A   Clear
10:53 AM 34.0 °F 27.2 °F 28.0 °F 79% 29.40 in 10.0 mi WNW 8.1 mph - N/A   Overcast
11:10 AM 35.6 °F 26.6 °F 28.4 °F 75% 29.40 in 10.0 mi West 13.8 mph - N/A   Overcast
11:53 AM 32.0 °F 20.8 °F 28.0 °F 85% 29.42 in 10.0 mi West 17.3 mph - N/A   Overcast
12:11 PM 32.0 °F 21.2 °F 28.4 °F 87% 29.42 in 10.0 mi WSW 16.1 mph - N/A   Overcast
12:53 PM 32.0 °F 20.8 °F 28.0 °F 85% 29.43 in 10.0 mi West 17.3 mph - N/A   Overcast
1:21 PM 32.0 °F 20.8 °F 28.4 °F 87% 29.44 in 10.0 mi West 17.3 mph - N/A   Overcast
1:53 PM 32.0 °F 21.2 °F 28.0 °F 85% 29.45 in 10.0 mi WSW 16.1 mph - N/A   Overcast
2:53 PM 33.1 °F 21.5 °F 28.0 °F 82% 29.45 in 10.0 mi West 19.6 mph - N/A   Overcast
3:53 PM 32.0 °F 20.5 °F 26.1 °F 79% 29.45 in 10.0 mi West 18.4 mph - N/A   Mostly Cloudy
4:53 PM 30.9 °F 18.7 °F 25.0 °F 79% 29.45 in 10.0 mi WNW 19.6 mph - N/A   Overcast
5:53 PM 30.9 °F 21.7 °F 25.0 °F 79% 29.47 in 10.0 mi West 11.5 mph - N/A   Overcast
6:53 PM 30.9 °F 22.2 °F 25.0 °F 79% 29.47 in 10.0 mi West 10.4 mph - N/A   Overcast
7:00 PM 30.2 °F 20.8 °F 24.8 °F 80% 29.46 in 10.0 mi West 11.5 mph - N/A   Overcast
7:53 PM 30.0 °F 20.5 °F 25.0 °F 82% 29.47 in 10.0 mi West 11.5 mph - 0.00 in   Overcast
8:22 PM 30.2 °F 20.8 °F 24.8 °F 80% 29.46 in 10.0 mi West 11.5 mph - N/A   Overcast
8:36 PM 30.2 °F 20.8 °F 24.8 °F 80% 29.46 in 2.5 mi West 11.5 mph - 0.00 in Snow Light Snow
8:44 PM 28.4 °F 18.5 °F 26.6 °F 93% 29.46 in 1.2 mi West 11.5 mph - 0.00 in Snow Light Snow
8:51 PM 30.2 °F 21.3 °F 26.6 °F 86% 29.47 in 4.0 mi West 10.4 mph - 0.00 in Snow Light Snow
8:53 PM 30.0 °F 21.7 °F 26.1 °F 85% 29.47 in 5.0 mi West 9.2 mph - 0.00 in Snow Light Snow
9:40 PM 30.2 °F 23.4 °F 24.8 °F 80% 29.46 in 10.0 mi West 6.9 mph - 0.00 in   Overcast
9:53 PM 28.9 °F 21.1 °F 25.0 °F 85% 29.46 in 10.0 mi WSW 8.1 mph - 0.00 in   Overcast
10:53 PM 28.9 °F 19.8 °F 24.1 °F 82% 29.46 in 10.0 mi SW 10.4 mph - N/A   Overcast
11:53 PM 28.9 °F 21.1 °F 24.1 °F 82% 29.46 in 10.0 mi SW 8.1 mph - N/A   Overcast